La Grange, TX

4:58 AM CDT on October 19, 2017 (GMT -0500)
La Grange

Weather History for K3T5 - September, 2014

Change the Weather History Date:

Wednesday, September 3, 2014

  Actual Average (KAUS) Record (KAUS)
Temperature  
Mean Temperature 88 °F -  
Max Temperature 100 °F 91 °F 107 °F (2000)
Min Temperature 75 °F 69 °F 61 °F (2004)
Cooling Degree Days 22    
Growing Degree Days 38 (Base 50)    
Moisture  
Dew Point 73 °F    
Average Humidity 67    
Maximum Humidity 95    
Minimum Humidity 33    
Precipitation  
Precipitation 0.00 in - - ()
Sea Level Pressure  
Sea Level Pressure 29.95 in    
Wind  
Wind Speed 5 mph (SSE)    
Max Wind Speed 17 mph    
Max Gust Speed 25 mph    
Visibility 10 miles    
Events      
Averages and records for this station are not official NWS values.
T = Trace of Precipitation, MM = Missing Value Source: NWS Daily Summary

Daily Weather History Graph

Daily Weather History Graph

Search for Another Location

Airport or City:

Trip Planner

Search our weather history database for the weather conditions in past years. The results will help you decide how hot, cold, wet, or windy it might be!

Date:

Astronomy

Sep. 03, 2014 Rise Set
Actual Time 7:06 AM CDT 7:47 PM CDT
Civil Twilight 6:41 AM CDT 8:11 PM CDT
Nautical Twilight 6:13 AM CDT 8:40 PM CDT
Astronomical Twilight 5:44 AM CDT 9:09 PM CDT
Moon 3:17 PM CDT (9/3) 1:14 AM CDT (9/3)
Length of Visible Light 13h 30m
Length of Day
12h 41m
Waxing Gibbous, 64% of the Moon is Illuminated
Sep 3
Waxing Gibbous
Sep 8
Full
Sep 15
Last Quarter
Sep 24
New
Oct 1
First Quarter

Hourly Weather History & Observations

Time (CDT) Temp. Heat Index Dew Point Humidity Pressure Visibility Wind Dir Wind Speed Gust Speed Precip Events Conditions
12:15 AM 81.3 °F 88.0 °F 76.1 °F 84% 29.94 in 10.0 mi SSE 4.6 mph - N/A   Clear
12:35 AM 81.1 °F 87.8 °F 76.3 °F 85% 29.94 in 10.0 mi SSE 4.6 mph - N/A   Clear
12:55 AM 80.6 °F 86.6 °F 76.1 °F 86% 29.93 in 10.0 mi SSE 5.8 mph - N/A   Clear
1:15 AM 80.2 °F 85.7 °F 75.6 °F 86% 29.94 in 10.0 mi South 4.6 mph - N/A   Clear
1:35 AM 79.7 °F - 75.7 °F 88% 29.94 in 10.0 mi Calm Calm - N/A   Clear
1:55 AM 79.0 °F - 75.4 °F 89% 29.94 in 10.0 mi Calm Calm - N/A   Clear
2:15 AM 78.4 °F - 75.4 °F 90% 29.94 in 10.0 mi Calm Calm - N/A   Clear
2:35 AM 78.4 °F - 75.6 °F 91% 29.94 in 10.0 mi Calm Calm - N/A   Clear
2:55 AM 77.9 °F - 75.2 °F 91% 29.94 in 10.0 mi Calm Calm - N/A   Clear
3:15 AM 77.4 °F - 74.7 °F 91% 29.94 in 10.0 mi Calm Calm - N/A   Clear
3:35 AM 77.0 °F - 74.5 °F 92% 29.94 in 10.0 mi Calm Calm - N/A   Clear
3:55 AM 76.3 °F - 74.3 °F 94% 29.94 in 10.0 mi Calm Calm - N/A   Clear
4:15 AM 75.6 °F - 74.1 °F 95% 29.95 in 10.0 mi Calm Calm - N/A   Clear
4:35 AM 76.3 °F - 74.1 °F 93% 29.95 in 10.0 mi Calm Calm - N/A   Clear
4:55 AM 75.2 °F - 73.6 °F 95% 29.94 in 5.0 mi Calm Calm - N/A   Clear
5:15 AM 75.2 °F - 73.8 °F 95% 29.94 in 10.0 mi Calm Calm - N/A   Scattered Clouds
5:35 AM 76.1 °F - 74.1 °F 94% 29.94 in 4.0 mi Calm Calm - N/A   Scattered Clouds
5:55 AM 75.7 °F - 73.9 °F 94% 29.95 in 10.0 mi Calm Calm - N/A   Scattered Clouds
6:15 AM 76.1 °F - 74.3 °F 94% 29.94 in 10.0 mi Calm Calm - N/A   Scattered Clouds
6:35 AM 75.6 °F - 73.9 °F 95% 29.95 in 10.0 mi Calm Calm - N/A   Clear
6:55 AM 75.9 °F - 74.1 °F 94% 29.94 in 10.0 mi Calm Calm - N/A   Clear
7:15 AM 75.7 °F - 73.9 °F 94% 29.95 in 10.0 mi Calm Calm - N/A   Clear
7:35 AM 75.6 °F - 73.9 °F 95% 29.95 in 10.0 mi Calm Calm - N/A   Clear
7:55 AM 76.6 °F - 74.8 °F 94% 29.96 in 10.0 mi Calm Calm - N/A   Scattered Clouds
8:15 AM 77.7 °F - 75.2 °F 92% 29.96 in 10.0 mi Calm Calm - N/A   Mostly Cloudy
8:35 AM 79.5 °F - 76.5 °F 90% 29.96 in 10.0 mi Calm Calm - N/A   Scattered Clouds
9:15 AM 83.8 °F 94.7 °F 78.1 °F 83% 29.98 in 10.0 mi SE 5.8 mph - N/A   Scattered Clouds
9:35 AM 85.3 °F 97.2 °F 78.3 °F 79% 29.98 in 10.0 mi SE 10.4 mph - N/A   Scattered Clouds
9:55 AM 86.2 °F 98.8 °F 78.1 °F 77% 29.99 in 10.0 mi SE 11.5 mph - N/A   Scattered Clouds
10:15 AM 86.7 °F 98.3 °F 77.0 °F 73% 29.99 in 10.0 mi SSE 10.4 mph - N/A   Scattered Clouds
10:35 AM 89.6 °F 99.8 °F 75.2 °F 62% 29.99 in 10.0 mi SE 12.7 mph 18.4 mph N/A   Scattered Clouds
10:55 AM 91.0 °F 101.0 °F 74.3 °F 58% 30.00 in 10.0 mi SE 8.1 mph 16.1 mph N/A   Scattered Clouds
11:15 AM 90.7 °F 98.5 °F 72.7 °F 55% 30.00 in 10.0 mi South 10.4 mph - N/A   Scattered Clouds
11:35 AM 92.3 °F 100.9 °F 72.9 °F 53% 30.00 in 10.0 mi South 11.5 mph 18.4 mph N/A   Scattered Clouds
11:55 AM 92.7 °F 101.1 °F 72.5 °F 52% 30.00 in 10.0 mi SE 11.5 mph 16.1 mph N/A   Scattered Clouds
12:15 PM 93.4 °F 102.1 °F 72.7 °F 51% 29.99 in 10.0 mi South 8.1 mph - N/A   Scattered Clouds
12:35 PM 94.1 °F 102.5 °F 72.3 °F 49% 29.99 in 10.0 mi SE 6.9 mph 17.3 mph N/A   Scattered Clouds
12:55 PM 95.9 °F 103.2 °F 71.1 °F 44% 29.98 in 10.0 mi South 12.7 mph 19.6 mph N/A   Clear
1:15 PM 97.3 °F 102.3 °F 68.2 °F 38% 29.97 in 10.0 mi South 15.0 mph 19.6 mph N/A   Scattered Clouds
1:35 PM 97.0 °F 102.2 °F 68.5 °F 39% 29.96 in 10.0 mi SE 10.4 mph - N/A   Clear
1:55 PM 97.7 °F 102.4 °F 67.5 °F 37% 29.96 in 10.0 mi SSE 17.3 mph 23.0 mph N/A   Clear
2:15 PM 97.3 °F 101.7 °F 67.3 °F 37% 29.95 in 10.0 mi SSE 9.2 mph 25.3 mph N/A   Clear
2:35 PM 98.8 °F 103.2 °F 66.7 °F 35% 29.94 in 10.0 mi South 13.8 mph 19.6 mph N/A   Clear
2:55 PM 99.1 °F 103.8 °F 67.1 °F 35% 29.94 in 10.0 mi SSE 12.7 mph 20.7 mph N/A   Clear
3:15 PM 100.4 °F 104.9 °F 66.7 °F 33% 29.93 in 10.0 mi SSE 16.1 mph 20.7 mph N/A   Clear
3:35 PM 97.3 °F 100.5 °F 65.8 °F 35% 29.92 in 10.0 mi SSE 11.5 mph 17.3 mph N/A   Scattered Clouds
3:55 PM 99.3 °F 104.9 °F 68.4 °F 36% 29.92 in 10.0 mi SE 10.4 mph 18.4 mph N/A   Scattered Clouds
4:15 PM 97.9 °F 102.7 °F 67.6 °F 37% 29.91 in 10.0 mi South 11.5 mph 18.4 mph N/A   Scattered Clouds
4:35 PM 98.2 °F 103.4 °F 68.2 °F 37% 29.91 in 10.0 mi South 13.8 mph 20.7 mph N/A   Scattered Clouds
4:55 PM 98.2 °F 104.1 °F 68.4 °F 38% 29.90 in 10.0 mi SE 15.0 mph 19.6 mph N/A   Scattered Clouds
5:15 PM 97.9 °F 104.0 °F 69.3 °F 39% 29.91 in 10.0 mi ESE 12.7 mph 20.7 mph N/A   Clear
5:35 PM 96.4 °F 102.4 °F 69.1 °F 41% 29.91 in 10.0 mi SSE 10.4 mph 18.4 mph N/A   Clear
5:55 PM 95.4 °F 100.8 °F 68.7 °F 42% 29.91 in 10.0 mi SSE 8.1 mph - N/A   Clear
6:15 PM 95.4 °F 100.8 °F 68.7 °F 42% 29.91 in 10.0 mi SSE 11.5 mph 16.1 mph N/A   Scattered Clouds
6:55 PM 93.2 °F 98.3 °F 69.1 °F 45% 29.92 in 10.0 mi South 10.4 mph - N/A   Clear
7:15 PM 92.3 °F 97.6 °F 69.4 °F 47% 29.92 in 10.0 mi South 10.4 mph 16.1 mph N/A   Clear
7:35 PM 91.2 °F 96.5 °F 69.6 °F 49% 29.92 in 10.0 mi South 8.1 mph - N/A   Clear
7:55 PM 89.8 °F 94.2 °F 68.9 °F 50% 29.93 in 10.0 mi SSE 8.1 mph - N/A   Clear
8:15 PM 88.9 °F 93.8 °F 70.0 °F 53% 29.93 in 10.0 mi South 6.9 mph - N/A   Clear
8:35 PM 87.4 °F 92.3 °F 70.2 °F 56% 29.93 in 10.0 mi South 3.5 mph - N/A   Clear
8:55 PM 87.1 °F 92.4 °F 70.7 °F 58% 29.94 in 10.0 mi SSE 4.6 mph - N/A   Clear
9:15 PM 85.5 °F 90.8 °F 70.9 °F 62% 29.95 in 10.0 mi SSE 3.5 mph - N/A   Clear
9:35 PM 85.3 °F 90.8 °F 71.6 °F 63% 29.95 in 10.0 mi SSE 5.8 mph - N/A   Clear
9:55 PM 84.9 °F 91.1 °F 72.3 °F 66% 29.96 in 10.0 mi SSE 5.8 mph - N/A   Clear
10:15 PM 84.2 °F 90.3 °F 72.7 °F 68% 29.97 in 10.0 mi SSE 6.9 mph - N/A   Clear
10:55 PM 83.5 °F 90.9 °F 74.8 °F 75% 29.98 in 10.0 mi SSE 5.8 mph - N/A   Clear
11:15 PM 83.1 °F 90.7 °F 75.4 °F 77% 29.98 in 10.0 mi SSE 5.8 mph - N/A   Clear
11:35 PM 82.4 °F 89.8 °F 75.7 °F 80% 29.98 in 10.0 mi SSE 4.6 mph - N/A   Clear
11:55 PM 81.9 °F 88.9 °F 75.7 °F 82% 29.98 in 10.0 mi SSE 5.8 mph - N/A   Clear